Chippewa, MI

4:18 AM EDT on July 21, 2017 (GMT -0400)
Chippewa County International

Weather History for KCIU - November, 2011

Change the Weather History Date:

Tuesday, November 29, 2011

  Actual Average Record
Temperature  
Mean Temperature 28 °F -  
Max Temperature 33 °F 34 °F 55 °F (2006)
Min Temperature 24 °F 21 °F -1 °F (1989)
Degree Days  
Heating Degree Days 36    
Moisture  
Dew Point 21 °F    
Average Humidity 69    
Maximum Humidity 87    
Minimum Humidity 55    
Precipitation  
Precipitation 0.00 in - - ()
Sea Level Pressure  
Sea Level Pressure 30.04 in    
Wind  
Wind Speed 8 mph (North)    
Max Wind Speed 17 mph    
Max Gust Speed 25 mph    
Visibility 10 miles    
Events      
Averages and records for this station are not official NWS values.
T = Trace of Precipitation, MM = Missing Value Source: NWS Daily Summary

Daily Weather History Graph

Daily Weather History Graph

Search for Another Location

Airport or City:

Trip Planner

Search our weather history database for the weather conditions in past years. The results will help you decide how hot, cold, wet, or windy it might be!

Date:

Astronomy

Nov. 29, 2011 Rise Set
Actual Time 7:57 AM EST 4:54 PM EST
Civil Twilight 7:23 AM EST 5:28 PM EST
Nautical Twilight 6:46 AM EST 6:05 PM EST
Astronomical Twilight 6:10 AM EST 6:41 PM EST
Moon 11:37 AM EST (11/29) 9:54 PM EST (11/29)
Length of Visible Light 10h 04m
Length of Day
8h 57m
Waxing Crescent, 24% of the Moon is Illuminated
Nov 29
Waxing Crescent
Dec 2
First Quarter
Dec 10
Full
Dec 17
Last Quarter
Dec 24
New

Hourly Weather History & Observations

Time (EST) Temp. Windchill Dew Point Humidity Pressure Visibility Wind Dir Wind Speed Gust Speed Precip Events Conditions
12:15 AM 32.0 °F 27.5 °F 26.6 °F 80% 30.04 in 10.0 mi NW 4.6 mph - N/A   Overcast
12:35 AM 30.2 °F 25.4 °F 26.6 °F 86% 30.05 in 10.0 mi WNW 4.6 mph - N/A   Scattered Clouds
12:55 AM 30.2 °F 24.3 °F 24.8 °F 80% 30.05 in 10.0 mi NW 5.8 mph - N/A   Mostly Cloudy
1:15 AM 30.2 °F 23.4 °F 26.6 °F 86% 30.03 in 10.0 mi WNW 6.9 mph - N/A   Overcast
1:35 AM 30.2 °F 25.4 °F 24.8 °F 80% 30.04 in 10.0 mi West 4.6 mph - N/A   Scattered Clouds
1:55 AM 28.4 °F 22.2 °F 24.8 °F 86% 30.03 in 10.0 mi West 5.8 mph - N/A   Partly Cloudy
2:15 AM 28.4 °F 21.2 °F 24.8 °F 86% 30.03 in 10.0 mi WNW 6.9 mph - N/A   Scattered Clouds
2:35 AM 28.4 °F 21.2 °F 24.8 °F 86% 30.04 in 10.0 mi NW 6.9 mph - N/A   Mostly Cloudy
2:55 AM 28.4 °F 21.2 °F 24.8 °F 86% 30.04 in 10.0 mi NW 6.9 mph - N/A   Mostly Cloudy
3:15 AM 28.4 °F 24.6 °F 24.8 °F 86% 30.03 in 10.0 mi NNW 3.5 mph - N/A   Mostly Cloudy
4:15 AM 28.4 °F 23.3 °F 24.8 °F 86% 30.07 in 10.0 mi South 4.6 mph - N/A   Overcast
4:35 AM 28.4 °F 24.6 °F 24.8 °F 86% 30.08 in 10.0 mi SSE 3.5 mph - N/A   Overcast
4:55 AM 30.2 °F - 24.8 °F 80% 30.06 in 10.0 mi Calm Calm - N/A   Overcast
5:15 AM 30.2 °F - 24.8 °F 80% 30.06 in 10.0 mi Calm Calm - N/A   Overcast
5:35 AM 28.4 °F - 24.8 °F 86% 30.05 in 10.0 mi Calm Calm - N/A   Overcast
5:55 AM 30.2 °F - 26.6 °F 86% 30.05 in 10.0 mi Calm Calm - N/A   Overcast
6:15 AM 30.2 °F 26.7 °F 24.8 °F 80% 30.07 in 10.0 mi WNW 3.5 mph - N/A   Overcast
6:35 AM 30.2 °F - 24.8 °F 80% 30.08 in 10.0 mi Calm Calm - N/A   Overcast
6:55 AM 30.2 °F 25.4 °F 26.6 °F 86% 30.08 in 10.0 mi NE 4.6 mph - N/A   Overcast
7:15 AM 30.2 °F 24.3 °F 26.6 °F 86% 30.08 in 10.0 mi NE 5.8 mph - N/A   Overcast
7:35 AM 32.0 °F 24.8 °F 26.6 °F 80% 30.08 in 10.0 mi NNE 8.1 mph - N/A   Overcast
7:55 AM 32.0 °F 24.2 °F 28.4 °F 87% 30.08 in 5.0 mi North 9.2 mph - N/A   Overcast
8:15 AM 33.8 °F 26.4 °F 26.6 °F 75% 30.09 in 10.0 mi North 9.2 mph - N/A   Overcast
8:35 AM 33.8 °F 29.6 °F 26.6 °F 75% 30.12 in 10.0 mi North 4.6 mph - N/A   Overcast
8:55 AM 33.8 °F 26.4 °F 24.8 °F 70% 30.11 in 10.0 mi North 9.2 mph - N/A   Overcast
9:15 AM 33.8 °F 24.8 °F 24.8 °F 70% 30.11 in 10.0 mi North 12.7 mph - N/A   Mostly Cloudy
9:35 AM 33.8 °F 23.9 °F 23.0 °F 65% 30.11 in 10.0 mi North 15.0 mph - N/A   Scattered Clouds
10:35 AM 33.8 °F 23.9 °F 21.2 °F 60% 30.11 in 10.0 mi North 15.0 mph - N/A   Partly Cloudy
10:55 AM 33.8 °F 26.4 °F 19.4 °F 56% 30.12 in 10.0 mi North 9.2 mph 17.3 mph N/A   Clear
11:35 AM 33.8 °F 24.3 °F 19.4 °F 56% 30.09 in 10.0 mi North 13.8 mph 18.4 mph N/A   Overcast
11:55 AM 33.8 °F 23.9 °F 19.4 °F 56% 30.09 in 10.0 mi North 15.0 mph - N/A   Overcast
12:15 PM 33.8 °F 25.3 °F 21.2 °F 60% 30.08 in 10.0 mi North 11.5 mph 17.3 mph N/A   Overcast
12:35 PM 33.8 °F 25.3 °F 19.4 °F 56% 30.08 in 10.0 mi North 11.5 mph 18.4 mph N/A   Overcast
12:55 PM 33.8 °F 25.3 °F 19.4 °F 56% 30.08 in 10.0 mi North 11.5 mph - N/A   Mostly Cloudy
1:55 PM 32.0 °F 22.5 °F 17.6 °F 55% 30.06 in 10.0 mi North 12.7 mph - N/A   Clear
2:15 PM 32.0 °F 22.1 °F 17.6 °F 55% 30.05 in 10.0 mi NNE 13.8 mph - N/A   Clear
2:35 PM 32.0 °F 22.1 °F 17.6 °F 55% 30.05 in 10.0 mi NNE 13.8 mph - N/A   Clear
2:55 PM 32.0 °F 23.0 °F 17.6 °F 55% 30.04 in 10.0 mi North 11.5 mph - N/A   Clear
3:15 PM 32.0 °F 24.2 °F 17.6 °F 55% 30.04 in 10.0 mi NNE 9.2 mph - N/A   Clear
3:35 PM 32.0 °F 23.6 °F 17.6 °F 55% 30.04 in 10.0 mi NNE 10.4 mph - N/A   Clear
3:55 PM 30.2 °F 19.8 °F 17.6 °F 60% 30.03 in 10.0 mi North 13.8 mph 19.6 mph N/A   Clear
4:15 PM 30.2 °F 20.2 °F 17.6 °F 60% 30.03 in 10.0 mi North 12.7 mph 18.4 mph N/A   Clear
4:35 PM 30.2 °F 20.8 °F 17.6 °F 60% 30.05 in 10.0 mi North 11.5 mph 17.3 mph N/A   Clear
4:55 PM 30.2 °F 19.8 °F 15.8 °F 55% 30.04 in 10.0 mi North 13.8 mph - N/A   Clear
5:15 PM 28.4 °F 18.5 °F 15.8 °F 59% 30.05 in 10.0 mi North 11.5 mph 16.1 mph N/A   Clear
5:35 PM 28.4 °F 18.0 °F 15.8 °F 59% 30.04 in 10.0 mi North 12.7 mph - N/A   Clear
5:55 PM 28.4 °F 17.5 °F 15.8 °F 59% 30.02 in 10.0 mi North 13.8 mph - N/A   Clear
6:15 PM 28.4 °F 17.0 °F 15.8 °F 59% 30.00 in 10.0 mi North 15.0 mph 18.4 mph N/A   Clear
6:35 PM 28.4 °F 17.0 °F 15.8 °F 59% 30.00 in 10.0 mi North 15.0 mph 20.7 mph N/A   Clear
6:55 PM 26.6 °F 14.3 °F 15.8 °F 64% 30.00 in 10.0 mi North 16.1 mph 24.2 mph N/A   Clear
7:15 PM 26.6 °F 13.8 °F 15.8 °F 64% 29.98 in 10.0 mi North 17.3 mph - N/A   Clear
7:35 PM 26.6 °F 13.8 °F 15.8 °F 64% 29.97 in 10.0 mi North 17.3 mph 25.3 mph N/A   Clear
7:55 PM 26.6 °F 15.2 °F 15.8 °F 64% 29.98 in 10.0 mi North 13.8 mph 23.0 mph N/A   Clear
8:15 PM 26.6 °F 14.7 °F 15.8 °F 64% 29.98 in 10.0 mi North 15.0 mph 24.2 mph N/A   Clear
8:35 PM 26.6 °F 16.8 °F 15.8 °F 64% 29.98 in 10.0 mi North 10.4 mph - N/A   Clear
8:55 PM 26.6 °F 15.2 °F 15.8 °F 64% 29.98 in 10.0 mi North 13.8 mph - N/A   Clear
9:55 PM 24.8 °F 14.0 °F 14.0 °F 64% 29.94 in 10.0 mi North 11.5 mph - N/A   Clear
10:15 PM 24.8 °F 14.6 °F 15.8 °F 69% 29.94 in 10.0 mi North 10.4 mph - N/A   Clear
10:35 PM 24.8 °F 15.3 °F 15.8 °F 69% 29.92 in 10.0 mi North 9.2 mph - N/A   Clear
10:55 PM 24.8 °F 14.6 °F 14.0 °F 64% 29.91 in 10.0 mi North 10.4 mph - N/A   Clear
11:15 PM 24.8 °F 15.3 °F 15.8 °F 69% 29.91 in 10.0 mi NNW 9.2 mph - N/A   Clear
11:35 PM 24.8 °F 14.6 °F 14.0 °F 64% 29.91 in 10.0 mi NNW 10.4 mph - N/A   Clear
11:55 PM 24.8 °F 12.4 °F 14.0 °F 64% 29.89 in 10.0 mi North 15.0 mph - N/A   Clear